{"data":{"norad_id":60919,"epoch":"2026-09-21T19:16:38.797248Z","epoch_age_seconds":76208,"freshness":"FRESH","line1":"1 60919U 24154S   26264.80322682  .00000126  00000+0  14854-4 0  9996","line2":"2 60919  53.1604  91.2997 0001159  77.4106 282.7027 15.34390419116380","mean_motion":15.34390419,"eccentricity":0.0001159,"inclination_deg":53.1604,"raan_deg":91.2997,"arg_perigee_deg":77.4106,"mean_anomaly_deg":282.7027,"bstar":1.4854e-5,"rev_number":11638,"period_min":93.848344083019,"perigee_km":461.93886042208,"apogee_km":463.5245737907,"semimajor_km":6840.8687171064,"source":"CELESTRAK","updated_at":"2026-09-22T09:00:49.286519Z"}}